DRK400 VQPR-VNKT

Flight info

Callsign DRK400
Flight time 0h 51m
Altitude 34000
Route PRO G348 KIMTI
Aircraft A319/M-SDE3FGHIRWY/LB1

Departure

Time 2026-04-30 14:08
Airport Paro International Airport (VQPR)

Arrival

Time 2026-04-30 15:00
Airport Tribhuvan International Airport (VNKT)
Time Latitude Longitude Altitude Speed Heading
2026-04-30 13:42 27.40566 89.42142 7347 ft 0 kts 240°
2026-04-30 13:59 27.40567 89.42143 7339 ft 1 kts 240°
2026-04-30 13:59 27.40577 89.42165 7344 ft 2 kts 240°
2026-04-30 13:59 27.40584 89.42190 7348 ft 4 kts 293°
2026-04-30 14:00 27.40568 89.42212 7347 ft 4 kts 328°
2026-04-30 14:00 27.40550 89.42224 7350 ft 0 kts 329°
2026-04-30 14:04 27.40564 89.42215 7345 ft 6 kts 330°
2026-04-30 14:04 27.40578 89.42206 7342 ft 1 kts 330°
2026-04-30 14:04 27.40592 89.42197 7345 ft 5 kts 330°
2026-04-30 14:04 27.40649 89.42160 7346 ft 12 kts 330°
2026-04-30 14:05 27.40721 89.42115 7353 ft 11 kts 331°
2026-04-30 14:05 27.40784 89.42075 7352 ft 10 kts 331°
2026-04-30 14:05 27.40829 89.42097 7354 ft 8 kts 61°
2026-04-30 14:05 27.40863 89.42128 7354 ft 6 kts 341°
2026-04-30 14:06 27.40908 89.42100 7360 ft 10 kts 331°
2026-04-30 14:06 27.41068 89.41998 7363 ft 17 kts 330°
2026-04-30 14:07 27.41200 89.41908 7361 ft 1 kts 95°
2026-04-30 14:07 27.41180 89.41926 7365 ft 5 kts 148°
2026-04-30 14:07 27.41125 89.41961 7363 ft 18 kts 150°
2026-04-30 14:08 27.40009 89.42671 7327 ft 158 kts 150°
2026-04-30 14:08 27.38991 89.43322 7861 ft 167 kts 149°
2026-04-30 14:08 27.37618 89.45335 9422 ft 162 kts 120°
2026-04-30 14:09 27.36811 89.46234 10051 ft 167 kts 148°
2026-04-30 14:09 27.35814 89.46890 10711 ft 166 kts 150°
2026-04-30 14:09 27.33920 89.48380 11728 ft 175 kts 122°
2026-04-30 14:10 27.33488 89.49698 12061 ft 190 kts 107°
2026-04-30 14:10 27.33066 89.51182 12305 ft 210 kts 115°
2026-04-30 14:10 27.32107 89.52495 12463 ft 231 kts 148°
2026-04-30 14:10 27.30538 89.53068 12631 ft 250 kts 180°
2026-04-30 14:11 27.28824 89.52530 12887 ft 270 kts 217°
2026-04-30 14:11 27.27624 89.50855 13275 ft 289 kts 248°
2026-04-30 14:11 27.27026 89.48596 13600 ft 313 kts 256°
2026-04-30 14:11 27.26450 89.46138 13844 ft 338 kts 256°
2026-04-30 14:12 27.25840 89.43516 14197 ft 354 kts 256°
2026-04-30 14:12 27.25187 89.40823 14869 ft 359 kts 252°
2026-04-30 14:12 27.24228 89.38220 15610 ft 362 kts 245°
2026-04-30 14:12 27.23468 89.36543 16088 ft 364 kts 243°
2026-04-30 14:13 27.21769 89.33233 17079 ft 366 kts 240°
2026-04-30 14:13 27.20448 89.30777 17838 ft 369 kts 240°
2026-04-30 14:13 27.19128 89.28297 18508 ft 370 kts 241°
2026-04-30 14:13 27.17826 89.25789 19119 ft 374 kts 241°
2026-04-30 14:14 27.16533 89.23234 19721 ft 377 kts 242°
2026-04-30 14:14 27.15264 89.20684 20251 ft 380 kts 242°
2026-04-30 14:14 27.13977 89.18074 20817 ft 384 kts 242°
2026-04-30 14:14 27.12676 89.15432 21382 ft 388 kts 242°
2026-04-30 14:15 27.11360 89.12770 21932 ft 391 kts 242°
2026-04-30 14:15 27.10033 89.10090 22422 ft 395 kts 242°
2026-04-30 14:15 27.08694 89.07394 22880 ft 398 kts 242°
2026-04-30 14:15 27.07334 89.04666 23388 ft 402 kts 242°
2026-04-30 14:16 27.05963 89.01921 23844 ft 405 kts 242°
2026-04-30 14:16 27.04583 88.99160 24284 ft 407 kts 242°
2026-04-30 14:16 27.03195 88.96385 24735 ft 409 kts 242°
2026-04-30 14:16 27.01798 88.93600 25176 ft 410 kts 242°
2026-04-30 14:17 27.00398 88.90806 25617 ft 412 kts 242°
2026-04-30 14:17 26.98995 88.88000 26071 ft 414 kts 242°
2026-04-30 14:17 26.97577 88.85183 26517 ft 415 kts 242°
2026-04-30 14:17 26.96113 88.82398 26953 ft 417 kts 240°
2026-04-30 14:18 26.94599 88.79612 27387 ft 419 kts 240°
2026-04-30 14:18 26.93063 88.76832 27820 ft 421 kts 240°
2026-04-30 14:18 26.89963 88.71239 28662 ft 424 kts 240°
2026-04-30 14:19 26.86862 88.65581 29478 ft 427 kts 240°
2026-04-30 14:19 26.85318 88.62738 29888 ft 429 kts 240°
2026-04-30 14:19 26.83765 88.59879 30240 ft 430 kts 240°
2026-04-30 14:20 26.82225 88.57060 30574 ft 431 kts 240°
2026-04-30 14:20 26.80636 88.54160 31048 ft 429 kts 240°
2026-04-30 14:20 26.77569 88.48551 32073 ft 422 kts 240°
2026-04-30 14:21 26.76038 88.45748 32590 ft 420 kts 240°
2026-04-30 14:21 26.74525 88.42979 33106 ft 417 kts 240°
2026-04-30 14:21 26.71686 88.37380 33879 ft 411 kts 249°
2026-04-30 14:22 26.70980 88.34308 33925 ft 408 kts 262°
2026-04-30 14:22 26.71644 88.28006 33934 ft 417 kts 287°
2026-04-30 14:22 26.72979 88.25104 33940 ft 424 kts 296°
2026-04-30 14:23 26.78688 88.14831 33941 ft 425 kts 296°
2026-04-30 14:24 26.83412 88.06428 33948 ft 425 kts 296°
2026-04-30 14:25 26.89690 87.95200 33952 ft 426 kts 296°
2026-04-30 14:26 26.94415 87.86763 33955 ft 426 kts 296°
2026-04-30 14:26 26.97558 87.81133 33484 ft 425 kts 296°
2026-04-30 14:27 26.99124 87.78313 32751 ft 427 kts 296°
2026-04-30 14:27 27.00675 87.75519 32488 ft 429 kts 296°
2026-04-30 14:27 27.02257 87.72669 32243 ft 432 kts 296°
2026-04-30 14:28 27.05449 87.66931 31761 ft 435 kts 296°
2026-04-30 14:28 27.07051 87.64054 31522 ft 436 kts 296°
2026-04-30 14:28 27.08676 87.61130 31287 ft 437 kts 297°
2026-04-30 14:28 27.10259 87.58279 31055 ft 437 kts 297°
2026-04-30 14:29 27.13483 87.52459 30594 ft 439 kts 297°
2026-04-30 14:29 27.16712 87.46629 30147 ft 440 kts 297°
2026-04-30 14:30 27.21557 87.37852 29996 ft 441 kts 297°
2026-04-30 14:31 27.24785 87.31992 30004 ft 441 kts 297°
2026-04-30 14:31 27.29626 87.23204 30011 ft 441 kts 297°
2026-04-30 14:32 27.32112 87.17045 30015 ft 432 kts 282°
2026-04-30 14:32 27.32788 87.13760 30020 ft 430 kts 279°
2026-04-30 14:33 27.34072 87.07197 29997 ft 430 kts 279°
2026-04-30 14:33 27.35368 87.00625 29467 ft 431 kts 279°
2026-04-30 14:33 27.36020 86.97328 29195 ft 430 kts 279°
2026-04-30 14:34 27.36667 86.94046 28937 ft 429 kts 279°
2026-04-30 14:34 27.37306 86.90787 28678 ft 427 kts 279°
2026-04-30 14:34 27.37942 86.87528 28426 ft 426 kts 279°
2026-04-30 14:34 27.38574 86.84276 28167 ft 424 kts 279°
2026-04-30 14:35 27.39838 86.77795 27662 ft 422 kts 279°
2026-04-30 14:35 27.40466 86.74578 27409 ft 421 kts 279°
2026-04-30 14:35 27.41092 86.71365 27165 ft 420 kts 280°
2026-04-30 14:36 27.41716 86.68152 26919 ft 419 kts 280°
2026-04-30 14:36 27.42335 86.64955 26675 ft 418 kts 280°
2026-04-30 14:36 27.42951 86.61763 26433 ft 417 kts 280°
2026-04-30 14:36 27.43565 86.58574 26192 ft 416 kts 280°
2026-04-30 14:37 27.44177 86.55398 25960 ft 416 kts 280°
2026-04-30 14:37 27.44791 86.52221 25718 ft 415 kts 280°
2026-04-30 14:37 27.45403 86.49051 25479 ft 413 kts 281°
2026-04-30 14:37 27.46003 86.45934 25251 ft 413 kts 281°
2026-04-30 14:38 27.46619 86.42735 25019 ft 412 kts 281°
2026-04-30 14:38 27.47212 86.39635 24767 ft 410 kts 281°
2026-04-30 14:38 27.47812 86.36494 24481 ft 409 kts 281°
2026-04-30 14:38 27.48337 86.33350 24219 ft 407 kts 276°
2026-04-30 14:39 27.48454 86.30174 23947 ft 406 kts 268°
2026-04-30 14:39 27.48126 86.27019 23684 ft 405 kts 259°
2026-04-30 14:39 27.47363 86.23965 23369 ft 405 kts 250°
2026-04-30 14:40 27.44659 86.18419 22730 ft 404 kts 237°
2026-04-30 14:40 27.43086 86.15805 22415 ft 402 kts 237°
2026-04-30 14:40 27.41519 86.13196 22098 ft 400 kts 237°
2026-04-30 14:40 27.39962 86.10605 21790 ft 399 kts 238°
2026-04-30 14:41 27.38411 86.08023 21481 ft 397 kts 238°
2026-04-30 14:41 27.36872 86.05456 21180 ft 396 kts 238°
2026-04-30 14:41 27.35335 86.02892 20883 ft 394 kts 238°
2026-04-30 14:41 27.33806 86.00344 20586 ft 393 kts 238°
2026-04-30 14:42 27.32278 85.97801 20285 ft 391 kts 238°
2026-04-30 14:42 27.30759 85.95277 20001 ft 390 kts 238°
2026-04-30 14:42 27.29261 85.92788 19714 ft 388 kts 238°
2026-04-30 14:42 27.27751 85.90282 19431 ft 386 kts 238°
2026-04-30 14:43 27.26224 85.87751 19138 ft 385 kts 238°
2026-04-30 14:43 27.24741 85.85299 18866 ft 383 kts 238°
2026-04-30 14:43 27.23246 85.82833 18587 ft 382 kts 238°
2026-04-30 14:43 27.21754 85.80366 18309 ft 380 kts 238°
2026-04-30 14:44 27.20272 85.77916 17910 ft 378 kts 238°
2026-04-30 14:44 27.18796 85.75476 17487 ft 376 kts 238°
2026-04-30 14:44 27.17333 85.73052 17073 ft 374 kts 238°
2026-04-30 14:44 27.15880 85.70647 16674 ft 371 kts 238°
2026-04-30 14:45 27.14436 85.68252 16266 ft 368 kts 239°
2026-04-30 14:45 27.13205 85.65749 15872 ft 364 kts 247°
2026-04-30 14:45 27.12341 85.63093 15479 ft 361 kts 256°
2026-04-30 14:45 27.11861 85.60378 15100 ft 357 kts 264°
2026-04-30 14:46 27.11748 85.57572 14718 ft 354 kts 271°
2026-04-30 14:46 27.11765 85.54847 14345 ft 353 kts 271°
2026-04-30 14:46 27.11776 85.52101 14022 ft 351 kts 271°
2026-04-30 14:46 27.11781 85.49369 13749 ft 350 kts 270°
2026-04-30 14:47 27.11779 85.46647 13440 ft 348 kts 270°
2026-04-30 14:47 27.11775 85.43934 13136 ft 347 kts 270°
2026-04-30 14:47 27.11770 85.41226 12859 ft 346 kts 270°
2026-04-30 14:47 27.11764 85.38547 12610 ft 339 kts 270°
2026-04-30 14:48 27.11762 85.35929 12356 ft 330 kts 270°
2026-04-30 14:48 27.11762 85.33391 12149 ft 320 kts 270°
2026-04-30 14:48 27.11789 85.30928 11939 ft 311 kts 274°
2026-04-30 14:48 27.12127 85.28556 11599 ft 307 kts 284°
2026-04-30 14:49 27.12800 85.26284 11214 ft 306 kts 292°
2026-04-30 14:49 27.13760 85.24155 10821 ft 306 kts 300°
2026-04-30 14:49 27.15000 85.22214 10431 ft 306 kts 309°
2026-04-30 14:49 27.16499 85.20524 10258 ft 307 kts 318°
2026-04-30 14:50 27.20157 85.18017 9966 ft 310 kts 336°
2026-04-30 14:50 27.22190 85.17309 9909 ft 299 kts 345°
2026-04-30 14:51 27.26258 85.16976 9851 ft 292 kts
2026-04-30 14:51 27.28232 85.17327 9749 ft 283 kts 11°
2026-04-30 14:51 27.31775 85.18774 9603 ft 259 kts 19°
2026-04-30 14:52 27.33388 85.19507 9530 ft 247 kts 19°
2026-04-30 14:52 27.36506 85.20917 9389 ft 240 kts 19°
2026-04-30 14:52 27.38053 85.21613 9321 ft 239 kts 19°
2026-04-30 14:53 27.41130 85.23004 9182 ft 238 kts 20°
2026-04-30 14:53 27.42674 85.23701 9112 ft 238 kts 20°
2026-04-30 14:54 27.45717 85.25061 8916 ft 228 kts 19°
2026-04-30 14:54 27.48557 85.26337 8908 ft 216 kts 20°
2026-04-30 14:55 27.51308 85.27584 8898 ft 203 kts 20°
2026-04-30 14:55 27.52565 85.28149 8898 ft 184 kts 20°
2026-04-30 14:55 27.54844 85.29176 8370 ft 172 kts 20°
2026-04-30 14:56 27.56995 85.30151 7593 ft 164 kts 21°
2026-04-30 14:56 27.59108 85.31110 6839 ft 161 kts 22°
2026-04-30 14:57 27.60128 85.31574 6480 ft 159 kts 22°
2026-04-30 14:57 27.62168 85.32502 5717 ft 157 kts 22°
2026-04-30 14:58 27.64121 85.33387 5227 ft 145 kts 22°
2026-04-30 14:58 27.65044 85.33806 5028 ft 141 kts 22°
2026-04-30 14:58 27.66850 85.34633 4666 ft 140 kts 22°
2026-04-30 14:59 27.68651 85.35449 4352 ft 138 kts 23°
2026-04-30 15:00 27.70124 85.36124 4403 ft 16 kts
2026-04-30 15:00 27.70145 85.36016 4401 ft 14 kts 201°
2026-04-30 15:01 27.69977 85.35940 4397 ft 14 kts 201°
2026-04-30 15:01 27.69918 85.35913 4396 ft 11 kts 202°
2026-04-30 15:01 27.69873 85.35798 4387 ft 4 kts 292°
2026-04-30 15:02 27.69879 85.35781 4386 ft 3 kts 291°